Preview of NWS' New Version of Forecast
This preview is not operational and should not be used for support decisions.
Latest weather observations around

Bar Harbor, Hancock County-Bar Harbor Airport (KBHB)

Using English Units (Switch to International System of Units)
Date/ Time (EDT) Wind (mph) Vis. (mi) Weather Sky Cond. Temp (°F) Rel. Humidity Wind Chill (°F) Heat Index (°F) Pressure Precip. (in)
Air Dwpt 6 hour Altimeter (inHg) Sea level (inHg) 1 hr 3 hr 6 hr
Max Min
Mar 26 15:56 WNW 10 10 Clear CLR 34 0     23% 26   30.19 30.2      
Mar 26 14:56 NNW 9 10 Clear CLR 33 1     25% 25   30.19 30.2      
Mar 26 13:56 NW 10 10 Clear CLR 32 4     30% 24   30.2 30.21      
Mar 26 12:56 NNW 11 10 Clear CLR 31 5     33% 22   30.22 30.23      
Mar 26 11:56 WNW 9 10 Clear CLR 30 5     34% 22   30.22 30.23      
Mar 26 10:56 NNW 13 10 Clear CLR 29 4     34% 19   30.23 30.24      
Mar 26 09:56 NW 9 10 Clear CLR 28 4     35% 19   30.22 30.24      
Mar 26 08:56 N 9 10 Clear CLR 28 7     40% 19   30.21 30.22      
Mar 26 07:56 NW 7 10 Clear CLR 27 8     44% 19   30.2 30.21      
Mar 26 06:56 W 6 10 Clear CLR 23 7     50% 16   30.18 30.19      
Mar 26 05:56 WNW 5 10 Clear CLR 22 7     52% 16   30.14 30.16      
Mar 26 04:56 W 5 10 Clear CLR 23 8     52% 17   30.14 30.15      
Mar 26 03:56 WSW 3 10 Clear CLR 24 9     52% 20   30.12 30.14      
Mar 26 02:56 SW 3 10 Clear CLR 23 8     52% 19   30.12 30.13      
Mar 26 01:56 Calm 10 Clear CLR 24 7     48%     30.12 30.13      
Mar 26 00:56 WNW 3 10 Clear CLR 27 3     35% 23   30.11 30.13      
Mar 25 23:56 NW 5 10 Clear CLR 27 4     37% 21   30.12 30.13      
Mar 25 22:56 NW 7 10 Clear CLR 28 5     37% 21   30.1 30.11      
Mar 25 21:56 WNW 5 10 Clear CLR 29 4     34% 24   30.09 30.1      
Mar 25 20:56 NW 5 10 Clear CLR 30 6     36% 25   30.06 30.07      
Mar 25 19:56 Calm 10 Clear CLR 29 6     37%     30.03 30.04      
Mar 25 18:56 5 10 Clear CLR 33        % 29   30 30.01      
Mar 25 17:56 WNW 7 10 Clear CLR 36 -2     19% 30   29.98 29.99      
Mar 25 16:56 6 10 Clear CLR 37 -1     19% 32   29.98 29.99      
Mar 25 15:56 WNW 8 10 Clear CLR 38        % 32   29.98 29.99      
Mar 25 14:56 NW 14 10 Clear CLR 37 0     20% 28   29.98 29.99      
Mar 25 13:56 WNW 11 10 Clear CLR 37 4     24% 29   29.99 30      
Mar 25 12:56 WNW 10 10 Clear CLR 35 1     23% 27   30 30.01      
Mar 25 11:56 W 11 10 Clear CLR 34 1     24% 26   30.01 30.02      
Mar 25 10:56 NW 13 10 Clear CLR 33 2     26% 24   30.02 30.03      
Mar 25 09:56 NW 11 10 Clear CLR 34 5     29% 26   30.02 30.03      
Mar 25 08:56 NNW 13 10 Clear CLR 32 10     39% 22   30.02 30.03      
Mar 25 07:56 NNW 13 10 Clear   32 17     54% 22   30 30.01      
Mar 25 04:56 NW 5 9 Light Snow SCT025 OVC033 33 28     82% 29   29.94 29.96 0 0  
Mar 25 04:42 NNW 10 5 Light Snow and Fog/Mist BKN025 BKN031 OVC055 34 28     80% 26   29.94   0    
Mar 25 03:56 N 5 9 Unknown Precipitation SCT037 OVC055 33 29     85% 29   29.92 29.93 0    
Mar 25 02:56 N 3 10 Cloudy OVC060 30 28     92% 27   29.91 29.92      
Mar 25 01:56 Calm 10 Mostly Cloudy BKN070 28 25     88%     29.9 29.91      
Mar 25 00:56 Calm 10 Mostly Cloudy BKN080 30 26     85%     29.89 29.9      
Mar 24 23:56 Calm 10 Mostly Clear FEW120 30 26     85%     29.9 29.91      
Mar 24 22:56 S 5 10 Clear CLR 30 27     88% 25   29.9 29.91      
Mar 24 21:56 Calm 10 Clear CLR 32 28     85%     29.9 29.91      
Mar 24 20:56 Calm 10 Clear CLR 36 29     75%     29.91 29.92      
Mar 24 19:56 WSW 3 10 Clear CLR 37 29     72% 35   29.9 29.91      
Mar 24 18:56 SW 8 10 Clear CLR 40 28     62% 34   29.87 29.89      
Mar 24 17:56 SSW 8 10 Clear CLR 41 29     62% 36   29.85 29.86      
Mar 24 16:56 WNW 13 10 Clear CLR 49 20     31% 44   29.84 29.85      
Mar 24 15:56 W 6 10 Clear CLR 49 22     34% 46   29.84 29.85      
Mar 24 14:56 SW 11 10 Clear CLR 47 20     34% 42   29.85 29.86      
Mar 24 13:56 WSW 14 10 Clear CLR 46 20     35% 40   29.85 29.86      
Mar 24 12:56 SSW 15 10 Clear CLR 43 19     38% 36   29.86 29.88      
Mar 24 11:56 SW 11 10 Clear CLR 42 19     39% 36   29.89 29.9      
Mar 24 10:56 SW 13 10 Clear CLR 39 16     39% 31   29.91 29.92      
Mar 24 09:56 W 10 10 Clear CLR 38 14     37% 31   29.91 29.92      
Mar 24 08:56 SW 10 10 Clear CLR 35 14     42% 27   29.91 29.92      
Mar 24 07:56 WSW 8 10 Clear CLR 32 14     47% 25   29.91 29.93      
Mar 24 06:56 WSW 6 10 Clear CLR 29 14     53% 23   29.9 29.91      
Mar 24 05:56 SW 3 10 Clear CLR 26 16     65% 22   29.88 29.88      
Mar 24 04:56 W 3 10 Clear CLR 30 13     48% 27   29.86 29.87      
Mar 24 02:56 WNW 3 10 Clear CLR 30 15     53% 27   29.83 29.84      
Mar 24 01:56 WNW 6 10 Clear CLR 31 15     51% 25   29.81 29.82      
Mar 24 00:56 WNW 10 10 Clear CLR 31 15     51% 22   29.78 29.79      
Mar 23 22:56 WNW 10 10 Clear CLR 32 18     56% 24   29.73 29.74      
Mar 23 21:56 WNW 11 10 Clear CLR 34 21     59% 26   29.7 29.71      
Mar 23 20:56 WNW 11 10 Clear CLR 36 23     59% 28   29.66 29.67      
Mar 23 19:56 NW 11 10 Cloudy OVC045 38 25     59% 30   29.61 29.62      
Mar 23 18:56 WNW 11 10 Cloudy OVC039 37 25     61% 29   29.58 29.59      
Mar 23 17:56 NW 16 10 Cloudy OVC037 38 26     62% 29   29.53 29.54      
Mar 23 16:56 NW 16 10 Partly Cloudy SCT039 41 27     57% 33   29.46 29.47      
Mar 23 15:56 NW 15 10 Cloudy BKN041 OVC070 43 28     55% 36   29.4 29.41      
May 15 02:38 Calm 3 Fog/Mist SCT008 45 45     100%     29.87        
May 13 23:56 SSW 14 10 Cloudy OVC004 44 43     96% 37   30.1 30.11      
May 13 20:29 SSW 13 10 Cloudy OVC004 45 45     100% 38   30.11        
May 12 15:56 SSW 16 10 Clear CLR 53 29     39%     30.13 30.14      
May 12 04:56 Calm 10 Clear CLR 33 27     78%     30.21 30.22      
May 11 09:56 NW 9 10 Clear CLR 51 31     46%     29.88 29.89      
Jun 11 23:56 WSW 6 10 Clear   62 56     80%     29.84 29.85      
Notice The following observation data may not be complete
Jun 11 10:56   10 Clear CLR   59      %     29.86 29.87      
Jun 10 19:56 SSW 9 10 Clear CLR 59 51     75%     29.96 29.97      
Jun 09 05:56 E 6 10 Cloudy FEW050 BKN090 OVC110 51 45     79%     29.75 29.76 0    
Jun 08 08:56 SSW 10 10 Clear CLR 62 49     62%     30 30.01      
Jun 07 10:56 NNE 5 10 Clear CLR 65 41     42%     29.93 29.94      
Jun 06 03:12 NE 9 10 Mostly Cloudy BKN015 46 41     81% 42   29.99